Погода в Тамбове

Погода в Тамбове : погода сейчас, прогноз погоды и архив. Всё, что Вы хотите узнать о погоде в Тамбове!

Поиск расширенной информации на нашем сайте:

Полезная информация:

Другие новости

Новости СМИ2

Главная страница сайта

Новости сайта

03.07.2017

Напоминаем, что на нашем специализированном сайте Метеоцентр.Азия вы можете получить высокодетализированные автоматические прогнозы погоды по пунктам России, СНГ и мира в авиационном формате (включающие направление и скорость ветра, видимость, явления погоды, количество и форму облачности, нижнюю и верхнюю границу облачности).

Рекомендуем:

Погода в Тамбове - сегодня

Время (UTC), дата Ветер
(°,м/с) 
Видим.   Явления Облачность Т
(°С)
Тd
(°С)
f(%) Тe
(°С)
Pmin
(гПа)
dP
(гПа)
Po
(мм)
O2
(г/м3)
Тmin Tmax R s Состояние
почвы
09 15.09.19 300 (СЗ) 10 км    8/5 600 м верхняя 
[Cu hum|Ci fib]
+13.5 +5 56 +13  1017.7  751  288           
12 15.09.19 280 (З) 8{11}  10 км    5/5 600 м 
[Cu med, cong]
+16.6 +2.1 38 +16  1016.1  -1.4  750  285           
15 15.09.19 270 (З) 6{11}  10 км    4/0 верхняя 
[Ci fib]
+15.9 -1.2 31 +15  1015.3  -0.9  750  286    +16.6       
18 15.09.19 200 (Ю) 10 км    10/0 средняя 
[Ac und]
+10.6 -0.2 47 +11  1015  -0.5  749  291           
21 15.09.19 200 (Ю) 10 км    10/0 средняя 
[Ac und]
+12.2 -0.2 42 +12  1012.6  -2.3  747  288           
00 16.09.19 210 (ЮЗ) 10 км    10/0 средняя 
[Ac und]
+12.7 +0.9 44 +13  1010.5  -1.9  746  287           
03 16.09.19 190 (Ю) 10 км  слаб. дождь  10/10 1500 м 
[Ns]
+12.1 +2.7 53 +12  1008.4  -2.3  744  287  +10.5    0.0     
06 16.09.19 210 (ЮЗ) 5{10}  10 км  {дождь}  10/5 1000 м средняя 
[Sc|Ac As]
+13.8 +3.6 50 +13  1006  -2.2  743  284           
09 16.09.19 210 (ЮЗ) 6-11{12}  10 км    10/4 1000 м средняя 
[Sc|Ac As]
+15 +3.4 46 +14  1003.8  -2.1  741  283           
12 16.09.19 240 (ЮЗ) 8-13{14}  10 км    9/8 1000 м средняя 
[Sc|Ac trans]
+17 +5.1 45 +16  1002.7  -0.9  740  280           
15 16.09.19 260 (З) 5{14}  10 км  в посл. час ливневой дождь  9/9 1500 м кучево-дожд. 
[Cb calv]
+15.7 +7.4 58 +15  1003.5  0.6  741  281    +18  0.0     
18 16.09.19 180 (Ю) 10 км  {ливн. осадки}  3/3 1000 м 
[Sc]
+12.3 +6.8 69 +13  1004.2  0.6  741  285           
21 16.09.19 220 (ЮЗ) 10 км    8/0 средняя 
[Ac trans]
+11.6 +6.2 69 +13  1003.9  -0.4  741  285           
00 17.09.19 190 (Ю) 10 км    4/0 верхняя 
[Ci sp]
+10.4 +5.6 72 +10  1003.1  -0.8  740  286           
03 17.09.19 190 (Ю) 10 км    6/0 верхняя 
[Ci sp]
+7.5 +4.3 80 +7  1003  -0.3  740  290  +7         
06 17.09.19 190 (Ю) 10 км    8/0 средняя, верхняя 
[Ac trans|Ci sp]
+12.8 +5.3 60 +13  1002.8  -0.1  740  284  +6.8         
09 17.09.19 240 (ЮЗ) 8-12{13}  10 км    8/8 1000 м 
[Cu hum]
+18.2 +4.1 39 +18  1001.2  -1  739  279           
12 17.09.19 250 (З) 8-10{13}  10 км    8/8 1000 м 
[Sc diur, vesp]
+17.8 +3 37 +17  1001.1  -0.2  739  279           
15 17.09.19 260 (З) 7-10{12}  10 км    8/6 1000 м средняя, верхняя 
[Sc diur, vesp|Ac trans|Ci sp]
+15.7 +1.3 38 +15  1001.4  0.1  739  281    +18.8       
18 17.09.19 240 (ЮЗ) 3{10}  10 км    6/0 средняя, верхняя 
[Ac trans|Ci fib]
+11.2 +2.1 53 +11  1002.7  1.1  740  286           
21 17.09.19 230 (ЮЗ) 10 км    6/0 верхняя 
[Ci sp]
+8.2 +1.9 64 +8  1003.4  0.5  740  289           
00 18.09.19 140 (ЮВ) 10 км    8/0 средняя, верхняя 
[Ac trans|Ci sp]
+5 +2.3 83 +5  1003.5  740  293           
03 18.09.19 160 (Ю) 10 км    8/0 средняя, верхняя 
[Ac trans|Ci sp]
+4.6 +2.4 86 +4  1003  -0.5  740  293  +4.5        сухая 
06 18.09.19 160 (Ю) 10 км    9/4 1000 м средняя 
[Sc|Ac trans]
+10.8 +2.7 57 +11  1002.6  -0.1  740  286           
09 18.09.19 070 (В) 10 км  {ливн. осадки}  9/5 1000 м кучево-дожд., средняя 
[Cb calv|Ac trans]
+13.6 +4 52 +14  1001.7  -0.8  739  283           
Время (UTC), дата Ветер
(°,м/с) 
Видим.   Явления Облачность Т
(°С)
Тd
(°С)
f(%) Тe
(°С)
Pmin
(гПа)
dP
(гПа)
Po
(мм)
O2
(г/м3)
Тmin Tmax R s Состояние
почвы

Для получения пояснительной информации подведите курсор к названию столбца.

ПОГОДА в Тамбове - архив

Всё, что Вы хотите узнать о погоде в Тамбове - удобно и подробно!

Выберите нужную дату (начиная с 1 января 2018* года) и нажмите кнопку "Найти".
Будут отображены архивные сводки погоды по пункту Тамбов, начиная с указанной даты.


Отображать данные в формате CSV (для использования в таблицах Excel)


Внимание! Наш архив погоды предназначен исключительно для личного некоммерческого использования в познавательных целях. Если Вам необходимы официальные справки о состоянии погоды (для производственных, юридических, коммерческих и т.п. целей), обращайтесь в органы Росгидромета.

*Примечание: данная дата относится к архиву по метеостанциям СССР (Россия, СНГ, Балтия).
Архив по метеостанциям Зарубежной Европы и Азии (кроме Китая) хранится 10 дней, по другим регионам земного шара (Китай, Африка, Америка, Австралия, Океания) - 1 день.

Тамбов - район местоположения метеостанции


Название, широта, долгота, высота метеостанции:
Тамбов 52.8°ш. 41.3°д. 128 м над ур. моря [Российская Федерация]

Дополнительная информация

В oтличие oт бoльшинства пoгoдных сайтoв мы публикуем пoдрoбную метеoинфoрмацию в детальнoм прoфессиoнальнoм фoрмате.

Характеристики температуры и влажнoсти вoздуха измеряются на высoте 2 м в тени вдали oт зданий и деревьев.
Скoрoсть ветра измеряется на высoте 10 м (на урoвне рoста челoвека скoрoсть ветра ниже в 1.5-2 раза). Если метеoстанция нахoдится в гoрoде или в лесу, тo скoрoсть ветра занижена на 2-4 м/с пo сравнению с oткрытым местoм. Скoрoсть ветра над акватoриями крупных рек и oзёр, а также на вершинах хoлмoв на 2-5 м/с выше, чем в oбычных услoвиях.
Атмoсфернoе давление в разных тoчках местнoсти мoжет значительнo oтличаться oт давления на метеoстанции, в зависимoсти oт услoвий рельефа (при пoдъёме на 10 м давление пoнижается примернo на 1 мм рт.ст.).